FW8095 Weather Reports


Display with metric or nautical units.
time (UTC)temp
F
wind
direction
speed
MPH
gust
MPH
rain 1hr
in
rain 24hr
in
rain mn
in
humidity
%
barometer
mb
20260906210047 96 119 1.0 3.0 0.00 0.00 0.00 50 1010.5
20260906204542 96 133 0.0 2.0 0.00 0.00 0.00 50 1010.4
20260906203046 98 114 1.0 5.0 0.00 0.00 0.00 47 1010.8
20260906201548 98 227 1.0 4.0 0.00 0.00 0.00 45 1010.9
20260906200042 99 149 0.0 4.0 0.00 0.00 0.00 44 1010.7
20260906194549 100 163 1.0 4.0 0.00 0.00 0.00 43 1011.0
20260906193045 99 109 1.0 4.0 0.00 0.00 0.00 45 1011.2
20260906191555 100 341 0.0 3.0 0.00 0.00 0.00 48 1011.3
20260906190051 99 121 1.0 2.0 0.00 0.00 0.00 50 1011.7
20260906184556 100 112 1.0 4.0 0.00 0.00 0.00 48 1012.0
20260906183047 99 0 0.0 4.0 0.00 0.00 0.00 50 1012.2
20260906181548 99 127 1.0 5.0 0.00 0.00 0.00 50 1012.5
20260906180107 98 124 1.0 5.0 0.00 0.00 0.00 51 1012.7
20260906174542 99 184 1.0 4.0 0.00 0.00 0.00 51 1013.0
20260906173048 97 209 1.0 4.0 0.00 0.00 0.00 52 1013.1
20260906171547 97 109 1.0 2.0 0.00 0.00 0.00 51 1013.2
20260906170055 95 110 1.0 5.0 0.00 0.00 0.00 54 1013.4
20260906164544 95 115 0.0 4.0 0.00 0.00 0.00 56 1013.5
20260906163059 93 126 0.0 5.0 0.00 0.00 0.00 60 1013.7
20260906161546 94 122 1.0 3.0 0.00 0.00 0.00 59 1013.6
20260906160040 93 0 1.0 3.0 0.00 0.00 0.00 61 1014.0
20260906154545 91 244 0.0 3.0 0.00 0.00 0.00 64 1013.9
20260906153051 91 140 0.0 2.0 0.00 0.00 0.00 64 1013.9
20260906151543 90 198 1.0 3.0 0.00 0.00 0.00 66 1014.0
20260906150043 88 263 1.0 3.0 0.00 0.00 0.00 70 1014.0
20260906144540 86 173 0.0 2.0 0.00 0.00 0.00 72 1013.9
20260906143051 85 266 0.0 3.0 0.00 0.00 0.00 73 1013.9
20260906141545 83 238 0.0 2.0 0.00 0.00 0.00 78 1013.9
20260906140053 81 0 0.0 1.0 0.00 0.00 0.00 81 1013.9
20260906134539 79 0 0.0 1.0 0.00 0.00 0.00 84 1014.2
20260906133046 78 0 0.0 1.0 0.00 0.00 0.00 86 1014.4
20260906131601 77 0 0.0 1.0 0.00 0.00 0.00 86 1014.2
20260906130046 77 0 0.0 0.0 0.00 0.00 0.00 88 1014.0
20260906124540 76 0 0.0 1.0 0.00 0.00 0.00 88 1013.9
20260906123051 76 0 0.0 0.0 0.00 0.00 0.00 88 1013.7
20260906120039 75 0 0.0 1.0 0.00 0.00 0.00 89 1013.2
20260906114851 75 0 0.0 0.0 0.00 0.00 0.00 89 1013.4
20260906113045 76 0 0.0 0.0 0.00 0.00 0.00 88 1013.6
20260906111545 76 0 0.0 0.0 0.00 0.00 0.00 87 1013.5
20260906110048 77 0 0.0 0.0 0.00 0.00 0.00 86 1013.4
20260906103104 78 0 0.0 7.0 0.00 0.00 0.00 83 1013.5
20260906101558 78 0 0.0 5.0 0.00 0.00 0.00 83 1013.6
20260906100041 78 0 0.0 0.0 0.00 0.00 0.00 88 1013.4
20260906094541 78 0 0.0 0.0 0.00 0.00 0.00 90 1012.8
20260906093053 78 0 0.0 0.0 0.00 0.00 0.00 91 1012.9
20260906091541 78 0 0.0 0.0 0.00 0.00 0.00 91 1012.7
20260906090049 78 0 0.0 0.0 0.00 0.00 0.00 91 1012.7
20260906084552 78 0 0.0 0.0 0.00 0.00 0.00 91 1012.7
20260906083042 78 0 0.0 0.0 0.00 0.00 0.00 91 1013.0
20260906081540 78 0 0.0 1.0 0.00 0.00 0.00 92 1013.2
20260906080051 78 0 0.0 0.0 0.00 0.00 0.00 92 1013.3
20260906074548 77 0 0.0 0.0 0.00 0.00 0.00 91 1012.9
20260906073040 77 0 0.0 0.0 0.00 0.00 0.00 91 1012.8
20260906071540 77 0 0.0 0.0 0.00 0.00 0.00 90 1012.8
20260906070045 78 0 0.0 0.0 0.00 0.00 0.00 90 1012.9
20260906064539 78 0 0.0 0.0 0.00 0.00 0.00 89 1013.1
20260906063049 78 0 0.0 0.0 0.00 0.00 0.00 89 1013.3
20260906061547 78 0 0.0 0.0 0.00 0.00 0.00 89 1013.6
20260906060056 78 0 0.0 0.0 0.00 0.00 0.00 89 1013.6
20260906054541 78 0 0.0 0.0 0.00 0.00 0.00 88 1013.6
20260906053045 78 0 0.0 0.0 0.00 0.00 0.00 88 1013.7
20260906051755 78 0 0.0 0.0 0.00 0.00 0.00 88 1013.7
20260906050432 78 0 0.0 0.0 0.00 0.00 0.00 88 1013.9
20260906044541 78 0 0.0 0.0 0.00 0.00 0.00 88 1013.5
20260906043047 79 0 0.0 0.0 0.00 0.00 0.00 87 1013.5
20260906041548 79 0 0.0 0.0 0.00 0.00 0.00 86 1013.6
20260906040047 79 0 0.0 0.0 0.00 0.00 0.00 86 1013.6
20260906034546 79 0 0.0 0.0 0.00 0.00 0.00 85 1013.6
20260906033045 80 0 0.0 0.0 0.00 0.00 0.00 85 1013.7
20260906031544 80 0 0.0 0.0 0.00 0.00 0.00 84 1013.5
20260906030040 81 0 0.0 0.0 0.00 0.00 0.00 83 1013.6
20260906024544 81 0 0.0 0.0 0.00 0.00 0.00 83 1013.5
20260906023048 81 0 0.0 0.0 0.00 0.00 0.00 83 1013.5
20260906021553 81 0 0.0 0.0 0.00 0.00 0.00 83 1013.4
20260906020042 82 0 0.0 0.0 0.00 0.00 0.00 82 1013.4
20260906014548 82 0 0.0 0.0 0.00 0.00 0.00 81 1013.0
20260906013040 82 0 0.0 0.0 0.00 0.00 0.00 81 1012.8
20260906011602 83 0 0.0 0.0 0.00 0.00 0.00 80 1012.4
20260906010046 83 0 0.0 1.0 0.00 0.00 0.00 80 1012.2
20260906004545 84 0 0.0 0.0 0.00 0.00 0.00 79 1012.3
20260906003041 84 0 0.0 1.0 0.00 0.00 0.00 78 1012.1
20260906001551 85 270 0.0 1.0 0.00 0.00 0.00 77 1012.3
20260905234541 86 0 0.0 2.0 0.00 0.00 0.00 75 1012.4
20260905233104 87 0 0.0 2.0 0.00 0.00 0.00 75 1012.3
20260905231553 88 0 0.0 1.0 0.00 0.00 0.00 74 1012.3
20260905230047 88 0 0.0 3.0 0.00 0.00 0.00 73 1012.4
20260905224605 90 275 0.0 4.0 0.00 0.00 0.00 71 1012.2
20260905223044 91 0 0.0 2.0 0.00 0.00 0.00 68 1012.0
20260905220050 93 309 1.0 5.0 0.00 0.00 0.00 65 1011.8
20260905214549 94 304 0.0 3.0 0.00 0.00 0.00 63 1011.7
20260905213048 95 309 1.0 5.0 0.00 0.00 0.00 62 1011.7